• In Uzbekistan
  • List of Countries
  • For 7 days
  • Water Temperature
  • Satellite Maps
  • Weather Map
  • Weather Widgets
  • user-avatar
    Login

    Hourly Weather Plociczno

    Today, 16 February, Saturday

    Time Temperature Precipitation Wind Pressure Humidity
    00:00 +3°C° 0 mm 1 mps 762 mmHg 83%
    01:00 +3°C° 0 mm 1 mps 762 mmHg 81%
    02:00 +3°C° 0 mm 1 mps 762 mmHg 80%
    03:00 +2°C° 0 mm 2 mps 761 mmHg 80%
    04:00 +2°C° 0 mm 2 mps 761 mmHg 79%
    05:00 +2°C° 0 mm 2 mps 761 mmHg 80%
    06:00 +2°C° 0 mm 2 mps 761 mmHg 80%
    07:00 +2°C° 0 mm 2 mps 760 mmHg 81%
    08:00 +2°C° 0 mm 3 mps 760 mmHg 76%
    09:00 +4°C° 0 mm 3 mps 760 mmHg 70%
    10:00 +5°C° 0 mm 3 mps 760 mmHg 65%
    11:00 +7°C° 0 mm 3 mps 759 mmHg 61%
    12:00 +8°C° 0 mm 4 mps 759 mmHg 57%
    13:00 +10°C° 0 mm 4 mps 759 mmHg 54%
    14:00 +10°C° 0 mm 4 mps 759 mmHg 54%
    15:00 +10°C° 0 mm 3 mps 758 mmHg 55%
    16:00 +10°C° 0 mm 3 mps 758 mmHg 56%
    17:00 +9°C° 0 mm 3 mps 758 mmHg 61%
    18:00 +8°C° 0 mm 3 mps 758 mmHg 65%
    19:00 +5°C° 0 mm 3 mps 758 mmHg 70%
    20:00 +5°C° 0 mm 3 mps 758 mmHg 73%
    21:00 +4°C° 0 mm 3 mps 758 mmHg 77%
    22:00 +4°C° 0 mm 3 mps 758 mmHg 80%
    23:00 +3°C° 0 mm 3 mps 758 mmHg 82%

    Tomorrow, 17 February, Sunday

    Time Temperature Precipitation Wind Pressure Humidity
    00:00 +4°C° 0 mm 2 mps 758 mmHg 84%
    01:00 +4°C° 0 mm 2 mps 758 mmHg 87%
    02:00 +3°C° 0 mm 2 mps 758 mmHg 88%
    03:00 +3°C° 0 mm 2 mps 758 mmHg 90%
    04:00 +3°C° 0 mm 2 mps 758 mmHg 91%
    05:00 +2°C° 0 mm 2 mps 758 mmHg 92%
    06:00 +2°C° 0 mm 2 mps 758 mmHg 92%
    07:00 +2°C° 0 mm 2 mps 758 mmHg 93%
    08:00 +3°C° 0 mm 2 mps 758 mmHg 90%
    09:00 +4°C° 0 mm 2 mps 758 mmHg 86%
    10:00 +5°C° 0 mm 2 mps 758 mmHg 83%
    11:00 +6°C° 0 mm 2 mps 758 mmHg 81%
    12:00 +7°C° 0 mm 2 mps 758 mmHg 78%
    13:00 +8°C° 0 mm 2 mps 758 mmHg 76%
    14:00 +9°C° 0 mm 1 mps 758 mmHg 78%
    15:00 +9°C° 0 mm 1 mps 758 mmHg 79%
    16:00 +8°C° 0 mm 0 mps 758 mmHg 81%
    17:00 +7°C° 0 mm 0 mps 758 mmHg 84%
    18:00 +6°C° 0 mm 0 mps 758 mmHg 87%
    19:00 +5°C° 0 mm 0 mps 758 mmHg 90%
    20:00 +6°C° 0 mm 1 mps 758 mmHg 91%
    21:00 +6°C° 0 mm 1 mps 758 mmHg 91%
    22:00 +4°C° 0 mm 2 mps 758 mmHg 92%
    23:00 +4°C° 0 mm 2 mps 758 mmHg 92%

    Day after tomorrow, 18 February, Monday

    Time Temperature Precipitation Wind Pressure Humidity
    00:00 +4°C° 0 mm 2 mps 757 mmHg 91%
    01:00 +3°C° 0 mm 2 mps 757 mmHg 91%
    02:00 +3°C° 0 mm 2 mps 757 mmHg 91%
    03:00 +3°C° 0 mm 2 mps 757 mmHg 90%
    04:00 +2°C° 0 mm 2 mps 756 mmHg 89%
    05:00 +2°C° 0 mm 2 mps 756 mmHg 89%
    06:00 +2°C° 0 mm 2 mps 756 mmHg 89%
    07:00 +2°C° 0 mm 2 mps 756 mmHg 88%
    08:00 +3°C° 0 mm 2 mps 756 mmHg 83%
    09:00 +4°C° 0 mm 2 mps 756 mmHg 77%
    10:00 +4°C° 0 mm 3 mps 756 mmHg 71%
    11:00 +5°C° 0 mm 3 mps 756 mmHg 67%
    12:00 +8°C° 0 mm 3 mps 756 mmHg 63%
    13:00 +9°C° 0 mm 3 mps 756 mmHg 59%
    14:00 +9°C° 0 mm 3 mps 755 mmHg 60%
    15:00 +9°C° 0 mm 2 mps 755 mmHg 61%
    16:00 +9°C° 0 mm 2 mps 755 mmHg 62%
    17:00 +8°C° 0 mm 2 mps 754 mmHg 66%
    18:00 +7°C° 0 mm 2 mps 754 mmHg 71%
    19:00 +5°C° 0 mm 2 mps 754 mmHg 76%
    20:00 +5°C° 0 mm 2 mps 753 mmHg 77%
    21:00 +5°C° 0 mm 2 mps 753 mmHg 77%
    22:00 +4°C° 0 mm 2 mps 753 mmHg 78%
    23:00 +4°C° 0 mm 2 mps 753 mmHg 80%

    19 February, Tuesday

    Time Temperature Precipitation Wind Pressure Humidity
    00:00 +4°C° 0 mm 2 mps 752 mmHg 81%
    01:00 +3°C° 0 mm 2 mps 752 mmHg 82%
    02:00 +2°C° 0 mm 3 mps 752 mmHg 84%
    03:00 +2°C° 0 mm 3 mps 751 mmHg 86%
    04:00 +2°C° 0 mm 3 mps 751 mmHg 89%
    05:00 +2°C° 0 mm 3 mps 751 mmHg 89%
    06:00 +2°C° 0 mm 3 mps 750 mmHg 89%
    07:00 +1°C° 0 mm 3 mps 750 mmHg 89%
    08:00 +1°C° 0 mm 4 mps 750 mmHg 84%
    09:00 +4°C° 0 mm 4 mps 750 mmHg 79%
    10:00 +5°C° 0 mm 5 mps 750 mmHg 73%
    11:00 +5°C° 0.2 mm 5 mps 750 mmHg 75%
    12:00 +6°C° 0.2 mm 5 mps 750 mmHg 76%
    13:00 +6°C° 0.2 mm 5 mps 750 mmHg 78%
    14:00 +6°C° 0.3 mm 5 mps 750 mmHg 79%
    15:00 +6°C° 0.3 mm 5 mps 750 mmHg 80%
    16:00 +6°C° 0.3 mm 4 mps 751 mmHg 81%
    17:00 +6°C° 0.1 mm 4 mps 751 mmHg 79%
    18:00 +5°C° 0.1 mm 4 mps 751 mmHg 78%
    19:00 +5°C° 0.1 mm 4 mps 751 mmHg 77%
    20:00 +5°C° 0.1 mm 4 mps 752 mmHg 78%
    21:00 +4°C° 0.1 mm 4 mps 752 mmHg 79%
    22:00 +4°C° 0.1 mm 4 mps 752 mmHg 80%
    23:00 +4°C° 0 mm 4 mps 752 mmHg 82%

    20 February, Wednesday

    Time Temperature Precipitation Wind Pressure Humidity
    00:00 +3°C° 0 mm 4 mps 752 mmHg 83%
    01:00 +3°C° 0 mm 4 mps 752 mmHg 84%
    02:00 +1°C° 0 mm 4 mps 752 mmHg 86%
    03:00 +1°C° 0 mm 4 mps 752 mmHg 87%
    04:00 +1°C° 0 mm 5 mps 752 mmHg 89%
    05:00 +1°C° 0 mm 5 mps 752 mmHg 89%
    06:00 0°C° 0 mm 5 mps 752 mmHg 89%
    07:00 0°C° 0 mm 5 mps 752 mmHg 89%
    08:00 +1°C° 0 mm 5 mps 752 mmHg 87%
    09:00 +2°C° 0 mm 5 mps 752 mmHg 84%
    10:00 +2°C° 0 mm 5 mps 752 mmHg 82%
    11:00 +3°C° 0 mm 6 mps 752 mmHg 80%
    12:00 +4°C° 0 mm 6 mps 752 mmHg 78%
    13:00 +5°C° 0 mm 6 mps 752 mmHg 76%
    14:00 +5°C° 0.1 mm 6 mps 752 mmHg 75%
    15:00 +6°C° 0.1 mm 5 mps 752 mmHg 74%
    16:00 +6°C° 0.1 mm 5 mps 752 mmHg 74%
    17:00 +5°C° 0.1 mm 5 mps 752 mmHg 76%
    18:00 +5°C° 0.1 mm 5 mps 753 mmHg 79%
    19:00 +5°C° 0.1 mm 5 mps 753 mmHg 82%
    20:00 +5°C° 0.3 mm 4 mps 753 mmHg 84%
    21:00 +5°C° 0.3 mm 4 mps 753 mmHg 86%
    22:00 +5°C° 0.3 mm 4 mps 753 mmHg 89%
    23:00 +5°C° 0.2 mm 4 mps 753 mmHg 90%

    21 February, Thursday

    Time Temperature Precipitation Wind Pressure Humidity
    00:00 +5°C° 0.2 mm 4 mps 753 mmHg 91%
    01:00 +5°C° 0.2 mm 4 mps 753 mmHg 92%
    02:00 +5°C° 0.8 mm 4 mps 753 mmHg 92%
    03:00 +5°C° 0.8 mm 4 mps 753 mmHg 93%
    04:00 +5°C° 0.8 mm 4 mps 753 mmHg 93%
    05:00 +5°C° 0.7 mm 4 mps 753 mmHg 93%
    06:00 +5°C° 0.7 mm 4 mps 753 mmHg 93%
    07:00 +5°C° 0.7 mm 4 mps 753 mmHg 92%
    08:00 +6°C° 0.1 mm 4 mps 753 mmHg 91%
    09:00 +6°C° 0.1 mm 4 mps 753 mmHg 89%
    10:00 +6°C° 0.1 mm 4 mps 754 mmHg 88%
    11:00 +6°C° 0.1 mm 4 mps 754 mmHg 88%
    12:00 +6°C° 0.1 mm 4 mps 754 mmHg 88%
    13:00 +6°C° 0.1 mm 4 mps 755 mmHg 88%
    14:00 +7°C° 0.1 mm 3 mps 755 mmHg 89%
    15:00 +7°C° 0.1 mm 3 mps 755 mmHg 89%
    16:00 +7°C° 0.1 mm 3 mps 755 mmHg 89%
    17:00 +7°C° 0 mm 2 mps 756 mmHg 91%
    18:00 +7°C° 0 mm 2 mps 757 mmHg 93%
    19:00 +6°C° 0 mm 2 mps 757 mmHg 95%
    20:00 +6°C° 0.1 mm 2 mps 758 mmHg 95%
    21:00 +6°C° 0.1 mm 2 mps 758 mmHg 95%
    22:00 +5°C° 0.1 mm 2 mps 758 mmHg 95%
    23:00 +4°C° 0.1 mm 2 mps 759 mmHg 91%
    Show more